Watertown, NY

11:23 AM EDT on August 16, 2017 (GMT -0400)
Watertown International

Weather History for KART - January, 2014

Change the Weather History Date:

Monday, January 20, 2014

  Actual Average Record
Temperature  
Mean Temperature 6 °F 19 °F  
Max Temperature 32 °F 29 °F 57 °F (1951)
Min Temperature -21 °F 9 °F -21 °F (2014)
Degree Days  
Heating Degree Days 59 46  
Month to date heating degree days 842 905  
Since 1 July heating degree days 3679 3701  
Cooling Degree Days 0 0  
Month to date cooling degree days 0 0  
Year to date cooling degree days 0 0  
Moisture  
Dew Point 11 °F    
Average Humidity 74    
Maximum Humidity 92    
Minimum Humidity 55    
Precipitation  
Precipitation 0.10 in 0.09 in 0.52 in (1995)
Month to date precipitation 2.79 1.78  
Year to date precipitation 2.79 1.78  
Sea Level Pressure  
Sea Level Pressure 29.64 in    
Wind  
Wind Speed 10 mph (North)    
Max Wind Speed 7 mph    
Max Gust Speed 29 mph    
Visibility 3 miles    
Events Fog , Snow    
T = Trace of Precipitation, MM = Missing Value Source: NWS Daily Summary

Daily Weather History Graph

Daily Weather History Graph

Search for Another Location

Airport or City:

Trip Planner

Search our weather history database for the weather conditions in past years. The results will help you decide how hot, cold, wet, or windy it might be!

Date:

Astronomy

Jan. 20, 2014 Rise Set
Actual Time 7:32 AM EST 4:58 PM EST
Civil Twilight 7:00 AM EST 5:29 PM EST
Nautical Twilight 6:25 AM EST 6:05 PM EST
Astronomical Twilight 5:51 AM EST 6:39 PM EST
Moon 9:42 PM EST (1/20) 9:20 AM EST (1/20)
Length of Visible Light 10h 29m
Length of Day
9h 25m
Waning Gibbous, 83% of the Moon is Illuminated
Jan 20
Waning Gibbous
Jan 24
Last Quarter
Jan 30
New
Feb 6
First Quarter
Feb 14
Full

Hourly Weather History & Observations

Time (EST) Temp. Windchill Dew Point Humidity Pressure Visibility Wind Dir Wind Speed Gust Speed Precip Events Conditions
12:11 AM 32.0 °F 21.2 °F 24.8 °F 75% 29.47 in 7.0 mi SW 16.1 mph 26.5 mph 0.00 in   Overcast
12:20 AM 32.0 °F 20.8 °F 24.8 °F 75% 29.48 in 8.0 mi WSW 17.3 mph 24.2 mph 0.00 in   Overcast
12:56 AM 32.0 °F 20.1 °F 26.1 °F 79% 29.48 in 7.0 mi SW 19.6 mph 27.6 mph 0.00 in   Overcast
1:46 AM 30.2 °F 18.9 °F 26.6 °F 86% 29.46 in 2.0 mi WSW 16.1 mph 25.3 mph 0.00 in Snow Light Snow
1:56 AM 30.9 °F 19.4 °F 26.1 °F 82% 29.48 in 2.0 mi SW 17.3 mph 28.8 mph 0.00 in Snow Light Snow
2:05 AM 30.2 °F 19.3 °F 26.6 °F 86% 29.46 in 1.5 mi SW 15.0 mph 28.8 mph 0.00 in Snow Light Snow
2:18 AM 30.2 °F 18.9 °F 26.6 °F 86% 29.47 in 3.0 mi SW 16.1 mph 23.0 mph 0.00 in Snow Light Snow
2:56 AM 30.9 °F 20.2 °F 26.1 °F 82% 29.49 in 8.0 mi SW 15.0 mph 21.9 mph 0.00 in   Overcast
3:31 AM 30.2 °F 20.2 °F 26.6 °F 86% 29.47 in 2.5 mi SW 12.7 mph 20.7 mph 0.00 in Snow Light Snow
3:38 AM 30.2 °F 21.3 °F 26.6 °F 86% 29.47 in 1.8 mi WSW 10.4 mph - 0.00 in Snow Light Snow
3:49 AM 30.2 °F 20.2 °F 26.6 °F 86% 29.47 in 0.8 mi WSW 12.7 mph 21.9 mph 0.01 in Snow Light Snow
3:56 AM 30.9 °F 20.7 °F 28.0 °F 89% 29.49 in 0.5 mi WSW 13.8 mph 21.9 mph 0.02 in Fog , Snow Snow
4:05 AM 30.2 °F 19.8 °F 28.4 °F 93% 29.47 in 0.5 mi WSW 13.8 mph 21.9 mph 0.00 in Fog , Snow Snow
4:15 AM 30.2 °F 20.2 °F 28.4 °F 93% 29.47 in 0.2 mi WSW 12.7 mph 23.0 mph 0.03 in Fog , Snow Snow
4:21 AM 30.2 °F 18.9 °F 28.4 °F 93% 29.47 in 0.5 mi WNW 16.1 mph - 0.04 in Fog , Snow Snow
4:30 AM 28.4 °F 19.1 °F 26.6 °F 93% 29.47 in 0.2 mi West 10.4 mph - 0.06 in Fog , Snow Heavy Snow
4:46 AM 28.4 °F 19.1 °F 26.6 °F 93% 29.48 in 0.5 mi WNW 10.4 mph - 0.07 in Fog , Snow Snow
4:54 AM 28.4 °F 18.0 °F 26.6 °F 93% 29.48 in 0.5 mi West 12.7 mph - 0.07 in Fog , Snow Snow
4:56 AM 28.0 °F 17.5 °F 26.1 °F 92% 29.50 in 0.5 mi West 12.7 mph - 0.07 in Fog , Snow Snow
5:25 AM 19.4 °F 5.5 °F 15.8 °F 86% 29.51 in 0.5 mi NNE 15.0 mph - 0.01 in Fog , Snow Snow
5:56 AM 18.0 °F 5.4 °F 14.0 °F 84% 29.55 in 0.5 mi NNE 11.5 mph - 0.01 in Fog , Snow Snow
6:06 AM 17.6 °F 6.4 °F 14.0 °F 86% 29.53 in 1.0 mi NE 9.2 mph - 0.00 in Snow Light Snow
6:20 AM 17.6 °F 5.0 °F 12.2 °F 79% 29.54 in 1.5 mi NNE 11.5 mph - 0.00 in Snow Light Snow
6:56 AM 17.1 °F 5.0 °F 12.9 °F 84% 29.59 in 1.5 mi NNE 10.4 mph - 0.00 in Snow Light Snow
7:56 AM 15.1 °F 1.1 °F 10.9 °F 84% 29.61 in 1.5 mi NE 12.7 mph - 0.00 in Snow Light Snow
8:09 AM 15.8 °F 0.9 °F 10.4 °F 79% 29.59 in 1.8 mi NE 15.0 mph - 0.00 in Snow Light Snow
8:19 AM 15.8 °F 2.7 °F 10.4 °F 79% 29.60 in 2.0 mi NE 11.5 mph - 0.00 in Snow Light Snow
8:28 AM 15.8 °F 1.4 °F 8.6 °F 73% 29.61 in 1.5 mi NNE 13.8 mph - 0.00 in Snow Light Snow
8:56 AM 15.1 °F 0.5 °F 9.0 °F 77% 29.65 in 2.5 mi NNE 13.8 mph - 0.00 in Snow Light Snow
9:23 AM 14.0 °F -0.8 °F 8.6 °F 79% 29.64 in 3.0 mi North 13.8 mph - 0.00 in Snow Light Snow
9:31 AM 14.0 °F -0.2 °F 8.6 °F 79% 29.65 in 1.8 mi NNE 12.7 mph - 0.00 in Snow Light Snow
9:44 AM 14.0 °F -2.0 °F 8.6 °F 79% 29.65 in 2.0 mi NNE 16.1 mph - 0.00 in Snow Light Snow
9:54 AM 12.2 °F -3.1 °F 8.6 °F 85% 29.65 in 1.5 mi NNE 13.8 mph - 0.00 in Snow Light Snow
9:56 AM 12.9 °F -2.8 °F 8.1 °F 81% 29.68 in 1.5 mi NNE 15.0 mph - 0.00 in Snow Light Snow
10:09 AM 12.2 °F -1.8 °F 8.6 °F 85% 29.66 in 2.0 mi NNE 11.5 mph - 0.00 in Snow Light Snow
10:17 AM 12.2 °F -3.1 °F 6.8 °F 79% 29.66 in 1.8 mi North 13.8 mph - 0.00 in Snow Light Snow
10:24 AM 12.2 °F -3.1 °F 6.8 °F 79% 29.67 in 3.0 mi NNE 13.8 mph - 0.00 in Snow Light Snow
10:36 AM 12.2 °F -2.5 °F 6.8 °F 79% 29.67 in 2.0 mi NNE 12.7 mph - 0.00 in Snow Light Snow
10:43 AM 12.2 °F -1.8 °F 6.8 °F 79% 29.67 in 0.5 mi North 11.5 mph 20.7 mph 0.00 in Snow Snow
10:52 AM 12.2 °F -2.5 °F 6.8 °F 79% 29.67 in 0.2 mi North 12.7 mph - 0.00 in Snow Heavy Snow
10:54 AM 12.2 °F -3.1 °F 6.8 °F 79% 29.67 in 1.0 mi NNE 13.8 mph - 0.00 in Snow Light Snow
10:56 AM 12.0 °F -2.7 °F 6.1 °F 77% 29.69 in 1.2 mi NNE 12.7 mph - 0.00 in Snow Light Snow
11:11 AM 12.2 °F -2.5 °F 6.8 °F 79% 29.67 in 0.8 mi NNE 12.7 mph - 0.00 in Snow Light Snow
11:20 AM 12.2 °F -3.7 °F 6.8 °F 79% 29.66 in 1.0 mi NNE 15.0 mph - 0.00 in Snow Light Snow
11:29 AM 12.2 °F -3.1 °F 6.8 °F 79% 29.65 in 2.0 mi NNE 13.8 mph - 0.00 in Snow Light Snow
11:56 AM 10.9 °F -5.4 °F 3.9 °F 73% 29.70 in 2.5 mi NNE 15.0 mph - 0.00 in Snow Light Snow
12:03 PM 10.4 °F -4.8 °F 3.2 °F 73% 29.67 in 4.0 mi NNE 12.7 mph - 0.00 in Snow Light Snow
12:56 PM 10.9 °F -4.1 °F 3.0 °F 70% 29.73 in 5.0 mi North 12.7 mph - 0.00 in Snow Light Snow
1:56 PM 10.9 °F -1.8 °F 1.9 °F 67% 29.75 in 10.0 mi North 9.2 mph - 0.00 in   Overcast
2:56 PM 10.0 °F -2.9 °F -0.9 °F 61% 29.80 in 10.0 mi North 9.2 mph - N/A   Overcast
3:56 PM 8.1 °F -5.3 °F -5.1 °F 55% 29.84 in 10.0 mi North 9.2 mph - N/A   Overcast
4:56 PM 7.0 °F -1.7 °F -4.0 °F 61% 29.90 in 10.0 mi North 4.6 mph - N/A   Clear
5:56 PM 3.0 °F -4.4 °F -6.0 °F 66% 29.95 in 10.0 mi NE 3.5 mph - N/A   Clear
6:56 PM -9.0 °F - -13.0 °F 83% 29.99 in 10.0 mi Calm Calm - N/A   Clear
7:56 PM -8.0 °F -19.2 °F -11.9 °F 83% 30.01 in 10.0 mi East 4.6 mph - N/A   Clear
9:56 PM -9.9 °F -23.4 °F -14.1 °F 82% 30.06 in 10.0 mi East 5.8 mph - N/A   Partly Cloudy
10:56 PM -15.0 °F -27.4 °F -18.9 °F 82% 30.11 in 10.0 mi ENE 4.6 mph - N/A   Clear
11:56 PM -20.0 °F -30.7 °F -25.1 °F 78% 30.12 in 10.0 mi ENE 3.5 mph - N/A   Clear